Home   Weather   Lloydminster   Past weeks

Flag for Canada Past Weather in Lloydminster, Alberta, Canada — Yesterday and Last 2 Weeks

Now
68 °F

Scattered clouds.


Feels Like: 68 °F
Forecast: 45 / 69 °F
Wind: 17 mph from East

Location: Lloydminister

Current Time: Aug 30, 2016 at 2:52:51 PM

Latest Report: Aug 30, 2016 at 2:00 PM


Visibility: 15 mi

Pressure: 30.25 "Hg (28.05 "Hg at 648m altitude)

Humidity: 49%

Dew Point: 48 °F

Location of LloydminsterLocation

Past Weather in Lloydminster — Graph

°F

Lloydminster Temperature Yesterday

Maximum temperature yesterday: 61 °F (at 2:00 PM)
Minimum temperature yesterday: 37 °F (at 4:00 AM)
Average temperature yesterday: 50 °F

High & Low Weather Summary for the Past Weeks

 TemperatureHumidityPressure
High82 °F (Aug 16, 4:00 PM)100% (Aug 23, 6:54 AM)30.35 "Hg (Aug 23, 6:54 AM)
Low37 °F (Aug 29, 4:00 AM)33% (Aug 17, 4:00 PM)29.40 "Hg (Aug 22, 7:00 AM)
Average58 °F75%29.99 "Hg
* Reported Aug 15 1:00 PM — Aug 30 1:00 PM, Lloydminster, Weather by CustomWeather, © 2016

Note: Actual official high and low records may vary slightly from our data, if they occured in-between our weather recording intervals... More about our weather records

Advertising

Lloydminster Weather History for the Previous 24 Hours

Scroll right to see more
 ConditionsComfort  
Time TempWeatherWind HumidityBarometerVisibility
1:00 PM
Tue, Aug 30
66 °FScattered clouds.16 mph52%30.27 "Hg15 mi
12:00 PM63 °FPartly sunny.16 mph59%30.27 "Hg15 mi
11:00 AM59 °FScattered showers. Broken clouds.18 mph63%30.27 "Hg15 mi
10:00 AM59 °FScattered showers. Broken clouds.18 mph59%30.28 "Hg15 mi
9:00 AM52 °FScattered showers. Broken clouds.14 mph77%30.29 "Hg15 mi
8:00 AM48 °FBroken clouds.9 mph87%30.29 "Hg15 mi
7:00 AM43 °FPartly cloudy.8 mph93%30.28 "Hg15 mi
6:00 AM41 °FClear.8 mph93%30.29 "Hg9 mi
5:00 AM43 °FClear.7 mph93%30.29 "Hg9 mi
4:00 AM45 °FClear.7 mph93%30.30 "Hg9 mi
3:00 AM45 °FClear.7 mph93%30.30 "Hg9 mi
2:00 AM46 °FClear.3 mph87%30.29 "Hg9 mi
1:00 AM46 °FClear.5 mph87%30.29 "Hg9 mi
12:00 AM48 °FClear.5 mph82%30.29 "Hg9 mi
11:00 PM
Mon, Aug 29
48 °FClear.5 mph87%30.28 "Hg9 mi
10:00 PM50 °FPassing clouds.5 mph82%30.28 "Hg15 mi
9:00 PM50 °FPassing clouds.7 mph82%30.28 "Hg15 mi
8:00 PM54 °FPassing clouds.5 mph72%30.27 "Hg15 mi
7:00 PM61 °FScattered clouds.7 mph59%30.27 "Hg15 mi
6:00 PM61 °FPartly sunny.7 mph55%30.28 "Hg15 mi
5:00 PM61 °FPartly sunny.7 mph55%30.28 "Hg15 mi
4:00 PM61 °FPartly sunny.6 mph52%30.29 "Hg15 mi
3:00 PM61 °FPartly sunny.2 mph48%30.29 "Hg15 mi
2:00 PM61 °FBroken clouds.7 mph52%30.30 "Hg15 mi
Weather by CustomWeather, © 2016

See weather overviewHow to use our weather pages